WD6AWP Weather Reports


time (UTC)temp
C
wind
direction
speed
KPH
gust
KPH
rain 1hr
cm
rain 24hr
cm
rain mn
cm
humidity
%
barometer
mb
20260509131506 16 260 0.0 6.4 0.00 0.00 0.00 91 1013.1
20260509130006 16 250 0.0 0.0 0.00 0.00 0.00 91 1013.0
20260509124505 16 250 0.0 0.0 0.00 0.00 0.00 91 1012.9
20260509123004 16 250 0.0 0.0 0.00 0.00 0.00 91 1013.0
20260509121503 16 250 0.0 0.0 0.00 0.00 0.00 91 1013.0
20260509120002 16 250 0.0 0.0 0.00 0.00 0.00 91 1013.2
20260509114502 16 250 0.0 0.0 0.00 0.00 0.00 91 1013.0
20260509113002 16 250 0.0 0.0 0.00 0.00 0.00 91 1013.0
20260509111501 16 250 0.0 0.0 0.00 0.00 0.00 91 1013.1
20260509110059 16 250 0.0 6.4 0.00 0.00 0.00 91 1013.1
20260509104604 16 249 1.6 4.8 0.00 0.00 0.00 91 1013.1
20260509103107 16 249 3.2 6.4 0.00 0.00 0.00 91 1013.2
20260509101618 16 242 3.2 8.0 0.00 0.00 0.00 91 1013.2
20260509100059 16 198 0.0 0.0 0.00 0.00 0.00 91 1013.3
20260509094600 16 196 0.0 6.4 0.00 0.00 0.00 91 1013.4
20260509093053 16 196 0.0 3.2 0.00 0.00 0.00 91 1013.6
20260509091555 16 196 1.6 4.8 0.00 0.00 0.00 91 1013.6
20260509090057 16 198 0.0 8.0 0.00 0.00 0.00 91 1013.6
20260509084559 16 196 0.0 4.8 0.00 0.00 0.00 91 1013.7
20260509083103 16 192 0.0 4.8 0.00 0.00 0.00 91 1013.9
20260509081547 16 199 0.0 6.4 0.00 0.00 0.00 91 1014.0
20260509080050 16 208 1.6 6.4 0.00 0.00 0.00 91 1014.1
20260509074606 16 190 0.0 8.0 0.00 0.00 0.00 91 1014.1
20260509073101 16 184 0.0 0.0 0.00 0.00 0.00 91 1014.2
20260509071549 16 131 0.0 4.8 0.00 0.00 0.00 90 1014.2
20260509070047 16 146 1.6 8.0 0.00 0.00 0.00 90 1014.2
20260509064541 16 182 0.0 8.0 0.00 0.00 0.00 90 1014.4
20260509063055 16 199 1.6 6.4 0.00 0.00 0.00 90 1014.6
20260509061540 16 165 4.8 9.7 0.00 0.00 0.00 90 1014.6
20260509060101 16 198 0.0 8.0 0.00 0.00 0.00 90 1014.6
20260509054539 16 238 1.6 6.4 0.00 0.00 0.00 90 1014.6
20260509053052 16 220 3.2 9.7 0.00 0.00 0.00 90 1014.5
20260509051538 16 246 0.0 8.0 0.00 0.00 0.00 90 1014.6
20260509050037 16 259 4.8 14.5 0.00 0.00 0.00 90 1014.5
20260509044536 16 280 4.8 14.5 0.00 0.00 0.00 91 1014.5
20260509043043 16 248 4.8 12.9 0.00 0.00 0.00 91 1014.4
20260509041535 16 260 8.0 17.7 0.00 0.00 0.00 91 1014.2
20260509040040 16 267 3.2 14.5 0.00 0.00 0.00 91 1014.0
20260509034533 16 277 9.7 19.3 0.00 0.00 0.00 90 1013.9
20260509033037 16 273 11.3 19.3 0.00 0.00 0.00 90 1013.8
20260509031531 16 284 11.3 20.9 0.00 0.00 0.00 89 1013.7
20260509030031 16 246 8.0 20.9 0.00 0.00 0.00 89 1013.5
20260509024527 17 267 11.3 22.5 0.00 0.00 0.00 88 1013.3
20260509023027 17 255 11.3 22.5 0.00 0.00 0.00 88 1013.2
20260509021525 17 245 14.5 22.5 0.00 0.00 0.00 86 1013.1
20260509020024 18 268 11.3 24.1 0.00 0.00 0.00 86 1013.1
20260509014527 18 290 8.0 22.5 0.00 0.00 0.00 85 1013.1
20260509013022 18 286 11.3 20.9 0.00 0.00 0.00 83 1013.1
20260509011521 19 226 6.4 22.5 0.00 0.00 0.00 82 1013.1
20260509010029 20 254 4.8 20.9 0.00 0.00 0.00 80 1013.1
20260509004522 20 267 8.0 19.3 0.00 0.00 0.00 79 1013.2
20260509003017 20 287 11.3 19.3 0.00 0.00 0.00 77 1013.1
20260509001516 21 253 8.0 17.7 0.00 0.00 0.00 77 1013.2
20260509000015 21 224 8.0 17.7 0.00 0.00 0.00 77 1013.2
20260508234513 21 261 8.0 17.7 0.00 0.00 0.00 77 1013.3
20260508233012 21 236 6.4 19.3 0.00 0.00 0.00 76 1013.4
20260508231512 21 243 6.4 16.1 0.00 0.00 0.00 76 1013.5
20260508230010 21 252 6.4 22.5 0.00 0.00 0.00 76 1013.6
20260508224518 21 229 9.7 19.3 0.00 0.00 0.00 75 1013.9
20260508223005 21 267 8.0 20.9 0.00 0.00 0.00 76 1014.1
20260508221506 21 235 11.3 22.5 0.00 0.00 0.00 75 1014.2
20260508220003 21 233 8.0 17.7 0.00 0.00 0.00 74 1014.4
20260508214506 21 243 8.0 20.9 0.00 0.00 0.00 74 1014.4
20260508213001 21 229 4.8 16.1 0.00 0.00 0.00 74 1014.6
20260508211600 21 219 6.4 14.5 0.00 0.00 0.00 74 1014.6
20260508210057 21 225 6.4 16.1 0.00 0.00 0.00 76 1014.8
20260508204556 21 236 6.4 19.3 0.00 0.00 0.00 75 1014.8
20260508203053 21 260 9.7 17.7 0.00 0.00 0.00 75 1015.1
20260508201551 21 228 1.6 16.1 0.00 0.00 0.00 77 1015.3
20260508200049 21 209 4.8 12.9 0.00 0.00 0.00 77 1015.5
20260508194600 20 261 4.8 12.9 0.00 0.00 0.00 80 1015.6
20260508193047 20 234 6.4 16.1 0.00 0.00 0.00 80 1015.7
20260508191548 19 271 4.8 14.5 0.00 0.00 0.00 81 1015.8
20260508190100 19 265 1.6 14.5 0.00 0.00 0.00 82 1016.0
20260508184541 19 240 6.4 12.9 0.00 0.00 0.00 83 1016.1
20260508183037 18 222 4.8 12.9 0.00 0.00 0.00 84 1016.2
20260508181542 18 223 3.2 9.7 0.00 0.00 0.00 84 1016.1
20260508180035 18 229 0.0 9.7 0.00 0.00 0.00 85 1016.3
20260508174537 18 231 1.6 11.3 0.00 0.00 0.00 85 1016.4
20260508173028 18 203 3.2 11.3 0.00 0.00 0.00 85 1016.3
20260508171531 17 180 4.8 11.3 0.00 0.00 0.00 85 1016.3
20260508170027 17 167 0.0 0.0 0.00 0.00 0.00 86 1016.3
20260508164526 17 148 0.0 8.0 0.00 0.00 0.00 86 1016.4
20260508163023 17 165 0.0 0.0 0.00 0.00 0.00 86 1016.3
20260508161539 17 171 0.0 0.0 0.00 0.00 0.00 87 1016.3
20260508160021 17 130 0.0 11.3 0.00 0.00 0.00 88 1016.2
20260508154522 17 175 3.2 9.7 0.00 0.00 0.00 88 1016.2
20260508153034 16 165 0.0 4.8 0.00 0.00 0.00 88 1016.3
20260508151517 16 188 0.0 1.6 0.00 0.00 0.00 88 1016.4
20260508150016 16 146 0.0 3.2 0.00 0.00 0.00 89 1016.4
20260508144516 16 171 0.0 6.4 0.00 0.00 0.00 89 1016.3
20260508143014 16 163 3.2 9.7 0.00 0.00 0.00 89 1016.4
20260508141513 16 159 0.0 9.7 0.00 0.00 0.00 89 1016.2
20260508140012 16 132 3.2 11.3 0.00 0.00 0.00 89 1016.1
20260508134512 16 174 3.2 11.3 0.00 0.00 0.00 89 1016.1
20260508133011 16 163 0.0 11.3 0.00 0.00 0.00 89 1016.1